Temperature
20 18 18 18 18 19 19 19 18 18 18 18 17 16 16 16 16 16 16 17 17 17 17 18 18 18 17 17 17 17 16 16 16 16 16 15 15 15 15 15 15 14 14 14
18 18 19 19 19 19 18 18 18 18 18 18 17 16 16 16 16 16 16 16 16 17 17 17 17 17 17 17 17 16 16 16 16 16 15 15 15 15 15 14 14 14 14 14
19 19 20 20 19 19 19 18 18 18 18 17 17 16 16 16 16 16 16 16 16 17 17 17 17 17 17 17 17 16 16 16 16 15 15 15 15 15 15 14 14 14 14 14
18 19 20 19 19 19 18 19 19 18 17 16 17 16 16 15 15 15 15 15 16 16 16 16 17 17 17 16 16 16 16 16 15 15 15 15 15 15 14 14 14 14 14 13
18 19 19 19 19 19 19 19 18 17 17 16 16 15 15 15 15 15 15 15 16 16 16 16 16 16 16 16 16 16 16 15 15 15 15 15 14 14 14 14 14 14 14 13
18 19 19 19 19 19 18 17 16 14 14 15 16 15 15 14 15 15 15 15 16 16 16 16 16 16 16 16 16 15 15 15 15 15 14 14 14 14 14 14 14 14 14 13
18 18 19 19 19 18 17 16 15 15 14 15 15 15 14 15 15 15 15 15 16 16 16 16 16 16 16 16 15 15 15 15 15 15 14 14 14 14 14 14 14 14 13 13
17 17 18 19 19 18 17 16 15 16 15 14 15 14 15 15 15 16 15 15 15 16 16 16 16 15 15 15 15 15 15 14 14 14 14 14 14 14 13 13 13 13 13 13
16 16 18 18 18 18 17 15 15 14 14 14 14 14 15 15 15 15 15 15 15 15 15 15 15 15 15 15 15 15 14 14 14 14 14 14 14 13 13 13 13 13 13 13
16 16 17 17 18 17 17 15 13 14 14 14 14 14 14 15 14 14 14 14 14 15 15 15 15 15 15 14 14 14 14 14 14 14 13 13 13 13 13 13 13 13 13 13
16 15 16 16 17 16 16 15 13 12 13 13 14 14 15 14 14 13 13 14 14 14 15 15 14 14 14 14 14 14 14 13 13 13 13 13 13 13 13 13 13 13 13 13
14 13 14 15 16 16 16 15 13 14 13 12 12 13 15 14 13 13 14 14 14 14 14 14 14 14 14 14 14 13 13 13 13 13 13 13 13 13 13 12 12 12 12 12
14 13 14 15 15 15 15 15 14 12 11 11 12 14 14 13 13 14 13 14 14 13 13 13 13 13 13 13 13 13 13 13 13 13 12 12 12 12 12 12 12 12 12 12
14 12 13 14 14 14 15 15 14 13 12 11 11 13 13 13 12 13 13 13 13 13 13 13 13 13 13 13 13 12 12 12 12 12 12 12 12 12 12 12 12 12 12 12
13 13 13 13 14 14 14 14 14 13 12 12 13 13 13 13 12 13 13 13 13 13 13 12 12 12 12 12 12 12 12 12 12 12 12 12 12 12 11 11 11 11 11 11
11 13 13 13 14 14 14 14 14 13 13 13 13 13 13 13 13 13 13 13 13 13 13 12 12 12 12 12 12 12 12 11 11 11 11 11 11 11 11 11 11 11 11 11
11 12 12 12 12 13 13 14 14 13 13 13 13 13 12 12 12 13 13 13 13 13 12 12 12 12 12 12 11 11 11 11 11 11 11 11 11 11 11 11 11 11 11 11
11 11 10 11 12 13 13 13 14 13 13 13 13 12 12 12 13 13 13 13 13 13 12 12 12 12 12 11 11 11 11 11 11 10 10 10 10 10 10 10 10 10 10 10
10 10 10 10 11 11 13 13 13 13 13 12 12 12 12 12 12 12 13 13 13 13 12 12 12 12 11 11 11 11 11 11 10 10 10 10 10 10 10 10 10 10 10 10
9 9 9 9 12 12 13 14 14 13 13 13 12 11 11 11 10 11 13 13 12 12 12 12 11 11 11 11 10 10 10 10 10 10 10 9 9 9 9 9 9 9 9 9
10 9 9 9 10 11 12 13 14 13 13 13 13 12 12 11 11 13 12 12 12 12 11 11 11 11 11 10 10 10 10 10 10 9 9 9 9 9 9 9 9 9 9 9
10 9 9 8 10 11 12 12 12 12 13 13 13 13 13 12 12 12 12 12 12 11 11 11 11 10 10 10 10 10 9 9 9 9 9 9 9 8 8 9 9 9 9 9
9 9 9 9 10 11 12 12 13 13 13 13 13 13 13 12 12 12 11 11 11 11 11 10 10 10 10 9 9 9 9 9 9 9 8 8 8 8 8 8 8 8 8 8
9 9 8 8 9 11 12 13 13 13 13 13 13 12 12 12 12 11 11 11 10 10 10 10 9 9 9 9 9 9 9 8 8 8 8 8 8 8 8 8 8 8 8 8
9 8 8 9 9 10 12 13 13 13 12 12 12 12 12 11 11 11 10 10 10 10 9 9 9 9 9 9 9 8 8 8 8 8 8 7 7 7 7 7 7 7 7 7
8 8 8 9 11 10 12 12 12 12 12 12 12 11 11 11 11 10 10 10 9 9 9 9 9 8 8 8 8 8 8 8 7 7 7 7 7 7 7 7 7 7 7 7
Wind_Speed
4 4 2 5 5 4 3 3 3 4 2 1 2 2 3 1 0 1 2 2 2 3 3 1 1 1 2 2 2 2 2 2 2 2 2 2 1 1 1 2 2 3 4 4
5 2 5 3 3 3 3 2 3 3 1 1 1 2 3 1 1 2 3 3 3 2 2 2 1 2 1 1 1 1 2 2 2 2 2 1 1 0 0 1 3 2 3 3
4 4 1 2 2 2 2 4 4 3 2 3 2 4 3 2 2 2 1 1 1 2 2 1 1 1 1 1 2 2 2 2 1 2 2 3 3 2 2 2 1 1 2 2
2 3 1 1 1 3 4 4 4 2 2 2 1 2 5 3 4 3 2 2 1 1 1 0 1 1 2 2 1 2 2 2 2 2 3 3 2 1 1 1 0 1 1 2
3 1 1 2 3 4 4 0 2 1 3 1 2 2 5 3 3 4 2 2 2 1 1 1 1 1 1 0 1 1 2 2 2 2 3 3 1 1 0 0 0 0 1 1
3 2 2 3 0 2 3 5 6 5 4 1 2 3 5 3 4 4 2 2 2 1 1 1 1 2 2 2 2 2 2 2 2 2 2 2 2 1 1 1 1 0 0 0
5 4 3 0 2 3 5 6 4 5 4 4 2 2 6 5 4 4 4 3 2 1 1 0 1 1 2 2 2 2 2 1 1 2 1 1 2 2 2 2 2 1 1 1
0 5 4 1 2 3 2 7 6 3 4 4 2 4 6 3 3 1 1 1 1 1 1 1 1 1 0 1 1 1 1 1 1 1 1 1 1 1 1 1 2 2 2 2
3 5 5 2 0 5 4 3 5 6 2 2 5 5 6 0 2 2 2 1 1 1 2 1 1 1 1 0 0 1 1 1 0 0 0 0 1 1 1 1 1 1 1 1
5 3 5 4 4 5 4 7 5 4 3 3 5 5 4 4 3 2 1 2 2 2 1 1 1 1 1 1 0 1 1 0 0 0 0 1 1 1 1 1 1 1 2 1
3 2 4 4 1 1 3 4 4 4 4 4 4 6 4 5 4 4 3 2 2 1 1 1 0 0 0 1 2 1 1 1 1 1 1 1 1 1 1 1 2 2 1 1
3 4 2 5 4 1 2 4 6 3 3 4 3 7 3 2 3 3 2 1 1 1 1 0 1 1 1 1 1 0 1 1 1 1 1 1 1 1 1 1 2 2 2 2
4 4 2 5 5 3 1 2 4 5 4 4 4 7 2 2 1 1 2 1 0 1 1 2 2 1 1 1 1 1 1 1 1 1 1 1 1 1 2 2 2 2 2 2
5 4 5 7 6 3 3 3 4 5 4 5 8 8 7 4 3 3 2 1 1 0 0 1 1 1 1 1 1 1 1 1 1 1 1 1 2 2 2 2 2 1 1 1
4 3 4 5 5 3 5 6 5 7 8 9 8 8 10 8 6 5 3 2 1 1 1 1 2 2 2 1 2 1 1 2 1 1 1 2 2 2 1 2 2 1 1 1
3 3 1 3 3 3 5 8 7 7 6 7 7 9 7 4 3 3 4 4 4 4 4 3 3 2 2 2 2 2 2 2 1 1 2 2 2 2 2 2 1 1 1 0
2 4 2 4 5 4 6 6 6 4 5 6 8 8 3 2 5 6 5 5 6 5 5 5 4 4 4 4 3 2 2 1 1 1 2 2 2 2 2 2 1 1 1 1
5 4 3 1 2 5 7 3 3 4 4 5 5 4 4 5 3 3 4 5 6 5 4 4 4 4 4 3 3 2 1 1 1 2 2 2 2 2 1 1 1 1 1 1
4 6 3 2 2 7 7 3 3 3 5 3 4 3 1 1 3 3 3 4 6 5 5 4 4 3 3 3 3 1 1 1 2 3 3 2 2 1 1 1 2 2 1 1
5 4 4 3 2 5 6 4 1 2 5 3 4 3 2 2 1 5 4 3 3 3 2 2 2 1 1 2 2 1 1 2 3 4 4 3 2 2 2 2 2 2 2 2
2 2 3 4 5 7 6 4 1 2 6 3 3 4 4 4 5 5 3 2 2 2 2 1 1 2 2 2 2 1 2 3 5 4 3 2 2 2 2 2 1 1 1 1
5 5 5 4 4 7 3 2 4 6 3 2 3 3 3 3 3 2 2 1 1 1 1 1 1 1 1 1 2 1 3 4 3 2 2 1 1 1 1 1 1 1 1 1
6 7 6 8 7 5 3 5 4 3 3 4 3 3 3 2 2 2 2 1 1 1 1 1 1 1 1 1 2 3 4 3 2 2 2 2 1 1 1 1 1 1 0 1
4 2 3 4 7 6 6 5 4 3 3 3 3 3 3 3 3 2 2 1 1 1 1 1 1 2 3 3 2 4 3 2 1 2 2 2 1 1 1 1 1 1 1 2
5 4 3 6 7 6 5 5 4 2 2 1 2 2 3 3 3 3 2 3 2 2 2 2 2 3 4 3 3 3 3 2 2 2 2 2 2 2 1 2 2 2 3 3
5 7 6 7 7 5 6 5 3 2 3 3 2 2 2 3 4 3 3 3 3 3 2 2 3 4 4 3 4 4 3 2 2 2 2 2 2 2 2 1 2 3 3 3
Wind_Direction
42 73 201 222 197 195 187 206 256 266 269 158 217 266 284 288 194 265 272 250 241 262 284 354 50 89 86 79 99 132 126 130 135 123 116 101 89 42 44 46 64 104 116 115
39 291 244 214 174 161 174 213 262 297 349 153 202 315 302 353 249 235 229 232 232 262 342 6 55 76 121 141 148 143 150 148 162 161 146 137 136 114 92 39 48 81 110 124
180 250 252 141 149 163 212 199 217 230 8 31 57 340 336 340 1 20 21 263 226 211 223 228 155 165 142 188 194 181 174 155 152 129 103 78 60 41 36 36 33 39 102 121
237 272 153 140 226 176 244 234 200 182 115 302 61 284 297 315 339 356 352 350 305 271 207 156 182 198 223 231 201 158 158 143 134 128 131 134 143 166 227 221 227 10 84 118
268 281 171 215 234 181 217 52 108 112 138 46 9 171 290 337 306 296 298 287 278 263 211 198 204 224 252 106 97 133 128 125 121 124 138 139 141 184 173 92 87 42 19 64
262 280 215 225 284 127 122 67 58 52 75 28 268 184 281 260 248 270 271 263 275 256 214 241 359 41 37 49 69 88 103 94 101 118 125 138 147 144 133 155 198 240 329 326
336 331 330 88 63 31 77 81 29 3 11 262 280 191 247 256 249 234 238 241 256 251 199 115 43 38 38 49 48 63 96 84 85 114 134 163 180 175 187 202 204 209 218 245
344 301 309 350 163 181 147 135 153 204 234 280 324 236 249 267 288 283 227 198 236 281 256 216 193 149 129 56 50 64 96 112 106 133 186 185 182 185 201 214 205 214 221 222
176 261 304 325 263 137 127 145 159 138 162 266 283 285 298 314 8 28 42 45 324 289 273 229 174 138 134 116 149 156 120 96 97 212 213 204 207 199 222 232 211 222 242 235
158 246 303 318 51 35 122 139 101 121 161 260 286 273 249 247 262 300 328 325 316 320 313 261 155 161 179 194 13 55 75 156 249 15 287 262 247 233 218 196 231 229 234 225
123 168 311 4 74 178 70 86 99 112 147 168 262 273 235 224 220 220 245 280 296 314 297 233 228 207 158 73 61 43 17 25 356 308 281 299 270 244 189 204 236 236 224 201
123 125 264 277 279 242 160 150 137 146 221 182 200 264 283 228 212 200 225 289 337 4 11 21 63 51 46 44 44 354 317 324 315 311 287 270 274 265 234 246 256 244 234 226
131 112 40 343 343 3 67 143 139 127 129 169 193 260 303 6 62 177 200 236 9 32 43 35 28 29 11 348 330 300 301 300 323 360 359 312 295 288 275 264 258 246 239 242
112 124 173 207 227 233 269 241 168 143 171 213 225 251 284 290 268 250 232 220 189 126 96 40 349 332 329 320 299 315 315 313 319 358 10 323 286 263 266 275 259 241 233 234
105 169 216 239 249 232 241 254 229 209 203 208 235 238 255 248 233 230 217 204 208 235 234 235 258 273 296 304 302 311 322 323 298 322 327 295 300 310 304 301 284 262 228 245
95 161 207 282 276 262 263 262 246 236 227 225 244 262 258 240 198 214 216 210 223 232 231 233 237 247 256 265 276 296 307 307 302 283 288 300 324 336 320 293 280 255 252 259
131 138 140 269 303 339 277 248 221 217 213 199 225 245 250 242 224 219 217 216 226 232 232 231 232 231 235 240 241 262 274 291 314 294 298 302 304 309 316 298 302 230 229 192
148 134 148 248 7 251 250 262 207 217 249 228 235 246 227 232 240 236 214 211 227 233 233 234 235 234 233 231 239 253 276 276 279 296 300 298 302 309 327 339 290 253 215 194
150 141 136 144 248 279 292 273 192 205 269 235 215 237 262 50 15 310 250 223 229 230 231 229 224 228 229 234 231 231 280 284 286 285 282 275 261 276 298 309 284 252 208 220
80 104 127 148 210 249 258 274 231 131 276 250 193 203 188 95 332 273 263 252 248 250 241 227 214 196 210 243 216 209 271 285 276 272 269 267 258 244 243 247 259 249 219 221
99 94 155 187 226 260 261 272 105 170 255 248 201 207 194 209 230 254 267 270 247 253 253 223 170 178 212 215 184 214 276 277 274 273 274 275 259 247 236 246 262 253 230 230
184 174 187 169 208 254 262 144 183 223 249 241 225 221 223 246 269 277 276 265 233 292 288 235 199 218 227 195 176 220 269 275 285 281 270 270 282 286 299 239 290 303 214 220
202 193 189 194 219 250 242 230 254 224 235 247 234 233 209 243 266 278 290 286 275 257 266 264 224 243 261 222 196 231 265 280 285 285 269 255 273 284 267 203 232 306 265 231
259 188 182 242 263 268 271 271 282 259 245 246 234 230 215 225 230 235 245 256 260 272 265 266 240 259 268 257 235 242 260 266 252 268 268 262 254 277 297 267 226 226 243 246
234 190 212 251 269 287 283 267 265 278 279 273 278 247 216 204 230 227 228 241 240 253 257 239 233 247 262 268 268 263 247 238 258 260 260 258 254 250 264 269 257 247 243 239
208 195 200 235 237 226 253 263 255 252 269 262 253 275 261 220 222 229 232 236 237 245 251 250 253 257 265 264 271 271 257 230 215 239 250 246 248 249 247 262 305 304 293 300
Height
1516 1522 1526 1525 1524 1525 1528 1532 1534 1531 1525 1528 1530 1530 1528 1526 1525 1525 1525 1524 1525 1525 1526 1526 1527 1527 1528 1529 1530 1530 1530 1531 1531 1532 1532 1532 1533 1533 1533 1534 1534 1534 1534 1534
1522 1525 1520 1519 1521 1524 1527 1532 1533 1529 1525 1527 1531 1531 1527 1526 1525 1524 1524 1523 1524 1524 1524 1525 1526 1526 1527 1528 1529 1529 1530 1530 1531 1531 1532 1532 1532 1533 1533 1533 1533 1533 1533 1534
1523 1521 1517 1519 1521 1525 1527 1530 1530 1530 1528 1528 1531 1534 1530 1526 1525 1524 1524 1523 1523 1523 1523 1523 1524 1525 1526 1527 1527 1528 1529 1529 1530 1531 1532 1532 1532 1532 1532 1533 1533 1533 1533 1533
1520 1517 1517 1519 1522 1523 1529 1522 1523 1526 1534 1540 1535 1546 1533 1529 1526 1524 1524 1523 1523 1523 1523 1523 1524 1524 1525 1525 1526 1527 1528 1529 1530 1530 1531 1531 1531 1531 1532 1532 1532 1533 1533 1533
1521 1517 1518 1520 1519 1519 1522 1519 1523 1527 1533 1541 1539 1545 1540 1530 1529 1525 1523 1523 1522 1522 1522 1523 1523 1524 1524 1525 1526 1526 1527 1528 1529 1529 1530 1530 1530 1531 1531 1531 1532 1532 1532 1532
1518 1516 1516 1516 1515 1516 1518 1523 1528 1534 1540 1549 1542 1545 1543 1533 1527 1524 1522 1521 1521 1521 1522 1523 1523 1524 1524 1524 1525 1526 1527 1527 1528 1528 1529 1529 1529 1529 1530 1530 1530 1530 1531 1531
1523 1518 1515 1514 1517 1519 1521 1533 1548 1549 1556 1553 1541 1543 1540 1525 1523 1522 1521 1520 1520 1521 1521 1522 1522 1522 1523 1523 1524 1525 1525 1526 1527 1527 1527 1528 1528 1528 1528 1528 1528 1528 1529 1529
1532 1532 1518 1515 1517 1522 1524 1531 1548 1556 1558 1553 1543 1544 1532 1522 1521 1520 1519 1520 1520 1520 1521 1521 1522 1522 1522 1522 1523 1524 1524 1524 1525 1526 1526 1526 1526 1526 1526 1526 1526 1527 1527 1527
1532 1531 1518 1515 1515 1518 1525 1531 1532 1545 1549 1554 1549 1540 1528 1521 1520 1520 1519 1519 1519 1520 1520 1521 1521 1521 1521 1522 1522 1522 1523 1523 1524 1524 1524 1525 1525 1525 1525 1525 1525 1525 1525 1526
1525 1530 1522 1518 1516 1518 1521 1527 1538 1545 1553 1556 1549 1542 1535 1524 1522 1521 1520 1519 1519 1519 1519 1520 1520 1520 1521 1521 1521 1522 1522 1522 1522 1522 1523 1523 1523 1523 1523 1523 1523 1523 1523 1524
1523 1531 1528 1523 1523 1525 1526 1530 1537 1545 1547 1555 1555 1544 1523 1521 1520 1520 1519 1519 1519 1518 1518 1518 1519 1519 1519 1520 1520 1520 1520 1520 1521 1521 1521 1521 1521 1521 1521 1521 1520 1521 1521 1521
1524 1532 1536 1529 1522 1520 1522 1527 1535 1544 1547 1551 1553 1544 1519 1518 1517 1518 1518 1518 1518 1518 1518 1518 1518 1518 1518 1518 1518 1519 1519 1518 1519 1519 1519 1519 1519 1519 1518 1518 1518 1518 1518 1518
1524 1532 1540 1536 1533 1526 1525 1526 1530 1537 1546 1552 1551 1538 1517 1516 1516 1517 1517 1517 1517 1517 1517 1517 1517 1517 1517 1517 1517 1517 1517 1516 1517 1517 1516 1516 1516 1516 1516 1516 1516 1515 1515 1516
1521 1530 1536 1539 1534 1528 1527 1526 1528 1534 1543 1546 1541 1530 1520 1517 1517 1516 1516 1516 1517 1517 1517 1517 1516 1516 1516 1516 1516 1515 1515 1515 1514 1514 1514 1514 1514 1513 1513 1513 1513 1513 1512 1512
1521 1529 1528 1528 1525 1525 1525 1524 1525 1528 1530 1534 1528 1525 1518 1515 1514 1514 1515 1515 1516 1516 1516 1516 1515 1515 1515 1515 1514 1514 1514 1513 1513 1512 1512 1511 1511 1511 1511 1511 1510 1510 1510 1510
1523 1527 1527 1527 1523 1523 1524 1521 1521 1521 1521 1522 1521 1519 1511 1511 1512 1513 1513 1513 1513 1514 1514 1514 1514 1514 1513 1513 1513 1512 1512 1511 1511 1510 1509 1509 1509 1508 1508 1508 1507 1507 1507 1507
1525 1528 1532 1533 1527 1523 1526 1518 1516 1516 1515 1516 1518 1514 1510 1510 1509 1510 1510 1511 1511 1512 1512 1512 1512 1512 1512 1511 1511 1510 1510 1510 1509 1508 1507 1507 1506 1506 1505 1505 1505 1505 1504 1504
1524 1528 1534 1535 1531 1533 1521 1511 1510 1512 1511 1510 1509 1508 1507 1507 1507 1508 1508 1509 1509 1509 1509 1510 1510 1509 1509 1509 1509 1508 1508 1507 1506 1506 1505 1504 1504 1503 1502 1502 1502 1502 1502 1502
1519 1525 1534 1538 1536 1530 1517 1509 1509 1511 1510 1507 1506 1506 1506 1506 1506 1506 1507 1506 1506 1507 1507 1507 1507 1507 1507 1506 1506 1506 1505 1504 1503 1503 1502 1501 1501 1500 1500 1500 1500 1500 1500 1499
1520 1523 1532 1537 1534 1531 1516 1507 1505 1509 1511 1504 1504 1504 1505 1505 1509 1506 1504 1504 1504 1504 1505 1505 1504 1504 1504 1503 1503 1503 1502 1501 1500 1500 1499 1498 1498 1498 1497 1497 1497 1497 1497 1497
1524 1528 1532 1534 1533 1523 1510 1506 1506 1516 1511 1503 1502 1502 1502 1503 1504 1502 1501 1501 1502 1502 1502 1502 1502 1502 1501 1501 1501 1500 1499 1498 1498 1497 1497 1496 1495 1495 1495 1495 1495 1495 1494 1494
1522 1527 1530 1532 1531 1523 1505 1505 1508 1506 1501 1501 1500 1500 1501 1500 1500 1499 1499 1499 1499 1499 1500 1499 1499 1499 1499 1498 1498 1497 1496 1496 1495 1494 1494 1493 1492 1492 1492 1492 1492 1492 1492 1491
1517 1516 1517 1518 1515 1506 1503 1502 1501 1500 1499 1498 1498 1498 1499 1498 1497 1497 1497 1497 1497 1497 1497 1497 1496 1496 1496 1496 1495 1494 1494 1493 1492 1491 1490 1490 1490 1489 1489 1489 1489 1489 1488 1488
1511 1509 1511 1511 1505 1501 1500 1499 1498 1498 1497 1496 1496 1496 1496 1495 1495 1495 1495 1495 1495 1494 1494 1494 1493 1493 1492 1492 1492 1491 1491 1490 1489 1488 1487 1487 1486 1486 1486 1486 1486 1485 1485 1485
1507 1507 1508 1506 1501 1499 1496 1496 1496 1495 1495 1494 1493 1493 1493 1492 1492 1492 1492 1492 1492 1491 1491 1491 1490 1490 1489 1489 1488 1488 1487 1486 1485 1484 1483 1483 1483 1483 1482 1482 1482 1482 1482 1482
1501 1502 1504 1501 1496 1496 1494 1494 1494 1493 1492 1491 1491 1490 1489 1489 1489 1489 1489 1489 1489 1489 1488 1488 1487 1487 1486 1485 1485 1484 1483 1482 1481 1480 1479 1479 1479 1479 1479 1479 1479 1479 1479 1479